{"data":{"norad_id":54254,"intl_designator":"2022-155D","name":"JILIN-1 GAOFEN 03D54","alt_names":[],"object_type":"PAYLOAD","status":"ACTIVE","operator":null,"country":"PRC","launch_date":"2022-11-16","launch_site_code":"JSC","launch_vehicle":null,"mission":null,"orbit_class":"UNKNOWN","rcs_meters":null,"size_class":null,"mass_kg":null,"dimensions":null,"purposes":[],"wikipedia_slug":null,"has_3d_model":false,"image_url":null,"decayed_at":null,"tle_current":{"epoch":"2026-05-25T07:58:41.163168Z","epoch_age_seconds":39656,"freshness":"FRESH","line1":"1 54254U 22155D   26145.33242087  .00186259  00000+0  73689-3 0  9998","line2":"2 54254  97.6104 295.6194 0000676 215.0985 145.0241 15.86288866196667","mean_motion":15.86288866,"eccentricity":6.76e-5,"inclination_deg":97.6104,"raan_deg":295.6194,"arg_perigee_deg":215.0985,"mean_anomaly_deg":145.0241,"bstar":0.00073689,"rev_number":19666,"period_min":90.777917620459,"perigee_km":312.24576051765,"apogee_km":313.15036141789,"semimajor_km":6690.8350609678,"source":"CELESTRAK","updated_at":"2026-05-25T13:37:58.665937Z"}}}